Regional Weather Roundup
Issued by NWS Wakefield, VA

Home | Current Version | Previous Version | Graphics & Text | Print | Product List | Glossary On
Versions: 1 2 3 4 5 6 7 8 9 10 11 12 13 14 15 16 17 18 19 20 21 22 23 24 25 26 27 28 29 30 31 32 33 34 35 36 37 38 39 40 41 42 43 44 45 46 47 48 49 50
000
ASUS41 KAKQ 012215
RWRAKQ

REGIONAL WEATHER ROUNDUP
NATIONAL WEATHER SERVICE WAKEFIELD VA
600 PM EDT SUN MAY 01 2016

Note: "fair" indicates few or no clouds below 12,000 feet with no
significant weather and/or obstructions to visibility. * = Denotes
station may not report precipitation (e.g., rain,snow,etc.),
thunder or fog.

VAZ042-051-052>054-056-012300-
NORTHERN VIRGINIA

CITY           SKY/WX    TMP DP  RH WIND       PRES   REMARKS
WASH NATIONAL  CLOUDY    58  55  90 SE6       30.01F
DULLES         CLOUDY    58  55  90 SE6       30.00F
FORT BELVOIR   CLOUDY    59  55  88 E3        30.00F
QUANTICO       CLOUDY    60  56  86 E6        30.01F
FREDERICKSBRG* CLOUDY    64  60  88 SE5       29.99F
STAFFORD*      CLOUDY    59  56  89 NE6       30.03F
WARRENTON      CLOUDY    62  55  77 E5        29.99F
CULPEPER*      CLOUDY    64  60  85 CALM      29.99F
MANASSAS*      CLOUDY    59  57  94 SE7       30.00F
LEESBURG*      CLOUDY    59  59 100 SE8       30.00F
WINCHESTER     FAIR      64  55  72 SE9       29.96F
FRONT ROYAL*   FAIR      63  55  77 NE7       29.94F
LURAY*         MOCLDY    70  59  68 NE9       29.93S
$$

VAZ048-049-060>072-079>083-012300-
CENTRAL AND SOUTH CENTRAL VIRGINIA

CITY           SKY/WX    TMP DP  RH WIND       PRES   REMARKS
RICHMOND       CLOUDY    65  63  93 CALM      29.98F
CHESTERFIELD*  CLOUDY    66  54  63 CALM      30.00F
PETERSBURG*    CLOUDY    72  70  92 CALM      29.98F
HANOVER        CLOUDY    63  59  87 CALM      30.00F
TAPPAHANNOCK*  PTSUNNY   65  64  98 CALM      30.01S
QUINTON*       CLOUDY    67  65  93 CALM      29.98F
CHARLOTTSVILLE CLOUDY    67  59  75 SE7       29.96F
GORDONSVILLE*  CLOUDY    65  61  86 CALM      29.97S
ORANGE*        CLOUDY    64  61  88 CALM      30.00S
LOUISA*        CLOUDY    68  64  88 SE5       29.97F
BUMPASS*       CLOUDY    63  60  90 SE3       29.99F
FARMVILLE*     CLOUDY    72  66  80 CALM      29.95F
CREWE*         CLOUDY    68  68 100 CALM      29.97F
FORT PICKETT*  NOT AVBL
CHASE CITY*    MOCLDY    74  67  78 CALM      29.96F
CLARKSVILLE*   FAIR      73  66  78 SW7       29.96F
SOUTH HILL*    FAIR      73  65  75 S10       30.02F
LAWRENCEVILLE* CLOUDY    74  66  76 S7        29.97F
EMPORIA*       CLOUDY    72  63  73 SE8       29.99F
$$

VAZ088>098-012300-
SOUTHEAST VIRGINIA

CITY           SKY/WX    TMP DP  RH WIND       PRES   REMARKS
NORFOLK        FAIR      77  63  61 SW16      29.99S
VIRGINIA BEACH PTSUNNY   78  67  68 VRB7G20   29.99F
NORFOLK NAVAL  FAIR      76  64  66 SW10      30.00F
WEST POINT*    CLOUDY    68  64  86 SE3       30.01S
SALUDA*        CLOUDY    63  61  95 E5        30.00S
NEWPORT NEWS   PTSUNNY   72  65  78 SW12      29.99F
LANGLEY AFB    PTSUNNY   73  64  73 SW12      29.98F
FORT EUSTIS    CLOUDY    72  64  75 SW7       29.97F
WILLIAMSBURG*  FAIR      70  68  94 S3        30.00S
HR EXEC AP*    FAIR      75  64  69 SW14G22   30.02S
FRANKLIN*      PTSUNNY   74  64  70 S13       29.99F
US460-WAKEFLD  CLOUDY    74  64  71 VRB6      29.98F
$$

VAZ020-022-025-037-045-012300-
WEST CENTRAL AND SOUTHWEST VIRGINIA

CITY           SKY/WX    TMP DP  RH WIND       PRES   REMARKS
STAUNTON*      FAIR      75  63  66 SE13G18   29.93F
WAYNESBORO*    FAIR      70  60  71 MISG      29.94F
HOT SPRINGS VA PTSUNNY   68  58  70 S6        30.01F
LYNCHBURG      FAIR      72  63  73 S8        29.95F
DANVILLE       FAIR      74  65  73 SW7       29.96F
SOUTH BOSTON*  FAIR      76  67  73 S7        29.95F
MARTINSVILLE   FAIR      71  63  76 S3        29.99S
ROANOKE        PTSUNNY   77  64  64 SE10      29.94F
BLACKSBURG     FAIR      76  61  58 S9        29.99F
DUBLIN*        PTSUNNY   78  59  51 S9        29.96F
MARION*        FAIR      74  58  55 W12       30.02S
HILLSVILLE*    FAIR      69  63  82 S8        30.00F
RICHLANDS*     FAIR      74  65  73 SW7       29.98F
WISE*          FAIR      73  54  49 SW12      29.98F
ABINGDON*      FAIR      78  61  56 W12       29.97S
$$

MDZ021>025-VAZ099-100-012300-
SOUTHERN MARYLAND AND THE DELMARVA PENINSULA

CITY           SKY/WX    TMP DP  RH WIND       PRES   REMARKS
PATUXENT RIVER CLOUDY    57  54  89 E5        30.01S
BAY BRIDGE APT NOT AVBL
LEONARDTOWN    CLOUDY    55  54  94 CALM      30.03S
DOVER          CLOUDY    54  54 100 E6        30.03F
GEORGETOWN     CLOUDY    53  53 100 E6        30.04F FOG
EASTON         CLOUDY   N/A N/A N/A SE5       30.07R FOG
CAMBRIDGE      CLOUDY    54  54 100 CALM      30.02S
SALISBURY      CLOUDY    57  56  96 E5        30.02F FOG
OCEAN CITY     CLOUDY    56  54  93 E3        30.02F
WALLOPS ISLAND CLOUDY    62  58  86 S7        30.02F
ACCOMACK*      FAIR     N/A N/A N/A S5        30.00F
$$

NCZ012>017-030>032-012300-
NORTH CENTRAL AND EASTERN NORTH CAROLINA

CITY           SKY/WX    TMP DP  RH WIND       PRES   REMARKS
ROANOKE RAPIDS CLOUDY    72  64  78 SW9       29.99F
RALEIGH        PTSUNNY   76  65  68 S9        30.00S
ELIZABETH CITY MOSUNNY   75  66  73 SW16G23   30.02R
AHOSKIE*       PTSUNNY   71  64  78 S8        30.01S
EDENTON*       MOSUNNY   73  67  79 SW8       30.02F
CURRITUCK*     MOSUNNY   75  68  79 S6        30.02S
KILL DEVIL HLS MOSUNNY   73  64  74 S3        30.02F
MANTEO         NOT AVBL
CAPE HATTERAS  CLOUDY    70  65  84 S8        30.06F
TARBORO*       FAIR      74  66  76 S6        30.01F
GOLDSBORO      SUNNY     75  70  83 S10G17    29.99F
WASHINGTON     MOSUNNY   73  66  78 SW7       30.02F
GREENVILLE     SUNNY     73  68  83 SW8       30.03F
NEW BERN       CLOUDY    74  65  73 S8        30.04F
WILMINGTON     LGT RAIN  71  68  90 S5        30.05F
$$

VAZ048-012300-
ELSEWHERE

CITY           SKY/WX    TMP DP  RH WIND       PRES   REMARKS
HARRISBURG PA  DRIZZLE   52  50  93 SE7       30.03R FOG
BALTIMORE      DRIZZLE   54  53  97 E7        30.03R FOG
ANNAPOLIS      CLOUDY    55  54  96 E6        30.03S FOG
ANDREWS AFB    CLOUDY    56  54  94 SE7       30.01S FOG
PHILADELPHIA   LGT RAIN  53  49  86 NE6       30.07S FOG
HENDERSON NC   PTSUNNY   74  65  73 S8        29.98S
GREENSBORO     CLOUDY    78  64  61 SW7       29.97F
ROCKY MOUNT    MOSUNNY   75  66  73 S10       29.99F
$$

VAZ100-012300-
MARINE

STATION/POSITION TIME  TEMP    WIND        PRES    WAVE   SWELL
                       AIR SEA DIR/SP/G            HT/PER HT/PER
                 (UTC) (F)     (DEG/KT/KT) (MB)    (FT/S) (FT/S)
BRANDYWINE LGT   2100   52      80/ 11/ 12 1017.3F
CAPE MAY NJ      2100   52 57   70/  5/  7 1017.1F
LEWES DE         2100   52 55   70/  7/  9 1017.4F
15NM E FENWICK I 2150   52 51              1017.0S   3/ 8
OCEAN-CITY-INLET 2100   54 54   10/  3/  3 1016.5F
WACHAPREAGUE VA  2100   60 59  200/  6/  8 1016.3S
THOMAS POINT MD  2200   54 57   90/  6/  6 1018.2S
GOOSES REEF MD   2200   57 57  130/  4/  6 1017.5S   1/ 3
COVE POINT MD    2100   55     170/  6/  8 1016.9F
SOLOMONS ISLAND  2100   56 59  100/  6/  8   N/A
BISHOPS HEAD MD  2100   58 58  120/  4/  6 1015.8F
PINEY POINT MD   2100          120/  6/  7   N/A
POTOMAC MD       2200   59 59  150/  6/  6 1015.0F   1
CAMBRIDGE MD     2100   56 60  110/  6/  8 1015.8F
LEWISETTA VA     2100   60 60   80/  3/  3 1015.8F
RAPPAHANNOCK LGT 2100           90/  2/  2 1016.8F
STINGRAY PT      2200   61 60  150/  6/  8 1016.2F   1
YORK RVR RNG VA  2100   61     150/  9/ 10 1015.2F
YORKTOWN VA      2100   71 61  220/  9/ 12 1015.4F
JAMESTOWN VA     2200   71 65  190/  4/  6   N/A     0
DOMINION TERM VA 2100   70     220/ 11/ 12 1015.7F
KIPTOPEKE VA     2100      60  150/  9/ 10   N/A
CHES BAY BRIDGE  2100   69 60  170/  9/ 10 1015.4F
CAPE HENRY VA    2100   67     150/  5/  8   N/A
CHESAPEAKE LGHT  2100   59     180/ 15/ 15 1016.9F
WILLOUBY STN VA  2100   72     210/ 14/ 18 1016.6F
CAPE HENRY BUOY  2142      56                N/A     3/ 8
CAPE CHARLES BUO 2156      57                N/A     3/10   2/10
64NM E OF VA BCH 2150   60 53  190/ 14/ 16 1016.7F   4/ 9   3/ 9
DUCK PIER NC     2100   72 67  190/ 11/ 15 1016.3F
44056 DUCK FRF   2141      60                N/A     4/ 9   2/11
OREGON INLET NC  2100   70 64  170/ 13/ 16 1017.4F
HATTERAS NC      2100   73 67  180/  4/  8 1018.4F
DIAMOND SHLS NC  2150   74 74  200/ 14/ 17 1018.3F   4/10   3/10
CAPE LOOKOUT NC  2200   70     160/ 10/ 10 1017.3F
$$



USA.gov is the U.S. government's official web portal to all federal, state and local government web resources and services.